Hourly Data Report for May 12, 2012

All times are specified in Local Standard Time (LST). Add 1 hour to adjust for Daylight Saving Time where and when it is observed.

GANDER INTL A
NEWFOUNDLAND

48°56'13.000" N
54°34'05.000" W
151.20 m
8401703
71803
YQX

Download Data

Hourly Data (May 2012)
Hourly Data Report for May 12, 2012
Temp Definition
°C
Dew Point Temp Definition
°C
Rel Hum Definition
%
Wind Dir Definition
10's deg

Wind Spd Definition
km/h
Visibility Definition
km
Stn Press Definition
kPa
Hmdx Definition


Wind Chill Definition


Weather Definition


TIME
00:30 Legend Double Dagger 12.5 11.7 95 17 24 10.0 100.01     Rain Showers
01:30 Legend Double Dagger 12.3 11.5 95 17 13 10.0 100.00     LegendNANA
02:30 Legend Double Dagger 12.1 11.5 96 16 16 10.0 100.03     Cloudy
03:30 Legend Double Dagger 11.9 11.3 96 16 14 10.0 100.04     LegendNANA
04:30 Legend Double Dagger 12.1 11.6 97 15 15 10.0 100.06     LegendNANA
05:30 Legend Double Dagger 11.9 11.4 97 16 18 6.4 100.10     Rain Showers,Fog
06:30 Legend Double Dagger 11.8 11.3 97 15 14 10.0 100.12     Rain Showers
07:30 Legend Double Dagger 12.3 11.8 97 15 22 10.0 100.08     Drizzle
08:30 Legend Double Dagger 12.8 12.2 96 16 24 6.4 100.10     Rain Showers,Fog
09:30 Legend Double Dagger 13.1 12.5 96 16 29 6.4 100.11     Rain,Fog
10:30 Legend Double Dagger 13.5 12.6 94 16 30 6.4 100.08     Rain,Fog
11:30 Legend Double Dagger 13.4 12.3 93 17 38 8.1 100.07     Rain,Fog
12:30 Legend Double Dagger 13.1 12.2 94 18 31 6.4 100.06     Rain,Fog
13:30 Legend Double Dagger 12.9 12.1 95 18 23 8.1 100.09     Rain,Fog
14:30 Legend Double Dagger 12.8 11.7 93 17 10 10.0 100.10     Rain
15:30 Legend Double Dagger 13.3 12.4 94 14 21 10.0 99.98     Rain
16:30 Legend Double Dagger 13.2 12.3 94 20 11 10.0 100.17     LegendNANA
17:30 Legend Double Dagger 13.2 11.9 92 17 20 10.0 100.18     Mostly Cloudy
18:30 Legend Double Dagger 12.6 12.0 96 20 15 10.0 100.22     Drizzle
19:30 Legend Double Dagger 12.1 11.2 94 20 14 10.0 100.24     LegendNANA
20:30 Legend Double Dagger 11.6 10.7 94 18 18 10.0 100.27     Rain Showers
21:30 Legend Double Dagger 11.2 10.1 93 19 15 10.0 100.28     Rain Showers
22:30 Legend Double Dagger 10.8 9.6 92 20 18 10.0 100.31     Rain Showers
23:30 Legend Double Dagger 10.3 9.2 93 19 12 10.0 100.29     Cloudy

Notes on Data Quality.

Legend

  • E = Estimated
  • M = Missing
  • NA = Not Available
  • ‡ = Partner data that is not subject to review by the National Climate Archives
Date modified: